Overview Statistics Trail Chart Weather Telemetry Raw packets
 

This is the latest recevied weather packets stored in our database for station/object SV9TNF-54. If no packets are shown the sender has not sent any weather packets the latest 10 day(s).

<< 27 28 29 30 31 32 33 >>
Time Temp. Humidity Pressure Rain* Wind** Luminosity Snow
1788458960 30.56° C 27% 1011.5 hPa 0 mm 8.05 m/s, 8° - -
1788458660 30.56° C 27% 1011.5 hPa 0 mm 8.05 m/s, 8° - -
1788458360 30.56° C 30% 1010.8 hPa 0 mm 24.14 m/s, 1° - -
1788458060 30.56° C 30% 1010.8 hPa 0 mm 24.14 m/s, 1° - -
1788457760 30.56° C 30% 1010.8 hPa 0 mm 24.14 m/s, 1° - -
1788457460 30.56° C 30% 1010.8 hPa 0 mm 24.14 m/s, 1° - -
1788457160 30.56° C 30% 1010.8 hPa 0 mm 24.14 m/s, 1° - -
1788456860 30.56° C 30% 1010.8 hPa 0 mm 24.14 m/s, 1° - -
1788456560 31.11° C 27% 1010.8 hPa 0 mm 19.22 m/s, 71° - -
1788456259 31.11° C 27% 1010.8 hPa 0 mm 19.22 m/s, 71° - -
1788455959 31.11° C 27% 1010.8 hPa 0 mm 19.22 m/s, 71° - -
1788455659 31.11° C 28% 1010.8 hPa 0 mm 22.35 m/s, 10° - -
1788455359 31.11° C 28% 1010.8 hPa 0 mm 22.35 m/s, 10° - -
1788455059 31.11° C 28% 1010.8 hPa 0 mm 22.35 m/s, 10° - -
1788454759 31.11° C 30% 1010.8 hPa 0 mm 12.96 m/s, 28° - -
1788454459 31.11° C 30% 1010.8 hPa 0 mm 12.96 m/s, 28° - -
1788454159 31.11° C 30% 1010.8 hPa 0 mm 12.96 m/s, 28° - -
1788453859 31.11° C 33% 1010.8 hPa 0 mm 33.98 m/s, 26° - -
1788453559 31.11° C 33% 1010.8 hPa 0 mm 33.98 m/s, 26° - -
1788453258 31.11° C 33% 1010.8 hPa 0 mm 33.98 m/s, 26° - -
1788452958 32.78° C 29% 1010.8 hPa 0 mm 32.19 m/s, 8° - -
1788452658 32.78° C 29% 1010.8 hPa 0 mm 32.19 m/s, 8° - -
1788452358 32.78° C 29% 1010.8 hPa 0 mm 32.19 m/s, 8° - -
1788452058 32.78° C 29% 1010.8 hPa 0 mm 32.19 m/s, 8° - -
1788451758 32.78° C 29% 1010.8 hPa 0 mm 32.19 m/s, 8° - -

* Rain latest hour (hover to see other rain measurements)
** Current wind speed in m/s (hover to see current wind gust speed)